Schneifelwetter: Wetterstation Hallschlag, 537 m . NN
Wetterdaten: Montag, 22.02.2010
Datum Zeit Temp. A. Feuchte A. Luftdruck Regen Wind Richtung Richtung Sonnenschein Helligkeit T Regen Taupunkt Windchill
22.02.2010 00:00 -0,2 C 97 % 994 hPa 0,0 l/m 19,3 km/h (3 Bft) S22.5 170 0 min 0 lux 0,00 min -0,6 C -9,6 C
22.02.2010 00:15 -0,2 C 97 % 994 hPa 0,0 l/m 18,3 km/h (3 Bft) S22.5 180 0 min 0 lux 0,00 min -0,6 C -9,1 C
22.02.2010 00:30 -0,2 C 97 % 994 hPa 0,0 l/m 18,1 km/h (3 Bft) S22.5 170 0 min 0 lux 0,00 min -0,6 C -9,0 C
22.02.2010 00:45 -0,2 C 97 % 994 hPa 0,0 l/m 16,8 km/h (3 Bft) S-SW45 195 0 min 0 lux 0,00 min -0,6 C -8,3 C
22.02.2010 01:00 -0,2 C 97 % 994 hPa 0,0 l/m 18,4 km/h (3 Bft) S-SW45 195 0 min 0 lux 0,00 min -0,6 C -9,1 C
22.02.2010 01:15 -0,3 C 97 % 993 hPa 0,0 l/m 22,8 km/h (4 Bft) S45 185 0 min 0 lux 0,00 min -0,7 C -11,3 C
22.02.2010 01:30 -0,3 C 97 % 993 hPa 0,0 l/m 18,3 km/h (3 Bft) S22.5 190 0 min 0 lux 0,00 min -0,7 C -9,2 C
22.02.2010 01:45 -0,4 C 97 % 993 hPa 0,0 l/m 16,6 km/h (3 Bft) S22.5 185 0 min 0 lux 0,00 min -0,8 C -8,4 C
22.02.2010 02:00 -0,5 C 97 % 993 hPa 0,0 l/m 21,0 km/h (4 Bft) S-SW67.5 205 0 min 0 lux 0,00 min -0,9 C -10,7 C
22.02.2010 02:15 -0,6 C 97 % 993 hPa 0,0 l/m 13,4 km/h (3 Bft) S-SW45 195 0 min 0 lux 0,00 min -1,0 C -6,7 C
22.02.2010 02:30 -0,7 C 97 % 993 hPa 0,0 l/m 10,2 km/h (2 Bft) SW22.5 215 0 min 0 lux 0,00 min -1,1 C -4,4 C
22.02.2010 02:45 -0,8 C 97 % 993 hPa 0,0 l/m 9,2 km/h (2 Bft) S 190 0 min 0 lux 0,00 min -1,2 C -3,6 C
22.02.2010 03:00 -0,6 C 97 % 993 hPa 0,0 l/m 14,5 km/h (3 Bft) S45 175 0 min 0 lux 0,00 min -1,0 C -7,4 C
22.02.2010 03:16 -0,6 C 97 % 993 hPa 0,0 l/m 12,9 km/h (3 Bft) S22.5 190 0 min 0 lux 0,00 min -1,0 C -6,3 C
22.02.2010 03:31 -0,6 C 97 % 993 hPa 0,0 l/m 12,3 km/h (3 Bft) S22.5 180 0 min 0 lux 0,00 min -1,0 C -5,9 C
22.02.2010 03:46 -0,3 C 98 % 993 hPa 0,0 l/m 19,1 km/h (3 Bft) S-SW22.5 195 0 min 0 lux 0,00 min -0,6 C -9,6 C
22.02.2010 04:01 0,1 C 98 % 992 hPa 0,0 l/m 17,1 km/h (3 Bft) S-SW22.5 205 0 min 0 lux 0,00 min -0,2 C -8,1 C
22.02.2010 04:16 0,4 C 97 % 992 hPa 0,0 l/m 20,4 km/h (4 Bft) S22.5 180 0 min 0 lux 0,00 min -0,0 C -9,3 C
22.02.2010 04:31 0,6 C 97 % 992 hPa 0,0 l/m 17,5 km/h (3 Bft) S45 185 0 min 0 lux 0,00 min 0,2 C -7,6 C
22.02.2010 04:46 0,7 C 97 % 992 hPa 0,0 l/m 17,6 km/h (3 Bft) S-SW22.5 200 0 min 0 lux 0,00 min 0,3 C -7,6 C
22.02.2010 05:01 0,7 C 97 % 992 hPa 0,0 l/m 21,6 km/h (4 Bft) S-SW22.5 205 0 min 0 lux 0,00 min 0,3 C -9,4 C
22.02.2010 05:16 0,7 C 97 % 992 hPa 0,0 l/m 12,9 km/h (3 Bft) S67.5 185 0 min 0 lux 0,00 min 0,3 C -4,8 C
22.02.2010 05:31 0,5 C 97 % 992 hPa 0,0 l/m 12,5 km/h (3 Bft) S22.5 175 0 min 0 lux 0,00 min 0,1 C -4,8 C
22.02.2010 05:46 0,4 C 97 % 992 hPa 0,0 l/m 11,8 km/h (2 Bft) S22.5 170 0 min 0 lux 0,00 min -0,0 C -4,4 C
22.02.2010 06:01 0,3 C 97 % 992 hPa 0,0 l/m 13,7 km/h (3 Bft) S-SO 160 0 min 0 lux 0,00 min -0,1 C -5,8 C
22.02.2010 06:16 0,3 C 98 % 992 hPa 0,0 l/m 13,1 km/h (3 Bft) S22.5 180 0 min 0 lux 0,00 min 0,0 C -5,4 C
22.02.2010 06:31 0,3 C 98 % 991 hPa 0,0 l/m 14,7 km/h (3 Bft) S-SO22.5 155 0 min 0 lux 0,00 min 0,0 C -6,4 C
22.02.2010 06:46 0,3 C 98 % 991 hPa 0,0 l/m 13,6 km/h (3 Bft) S-SO22.5 160 0 min 0 lux 0,00 min 0,0 C -5,7 C
22.02.2010 07:01 0,2 C 98 % 991 hPa 0,0 l/m 14,5 km/h (3 Bft) S-SO22.5 160 0 min 0 lux 0,00 min -0,1 C -6,4 C
22.02.2010 07:16 0,3 C 99 % 991 hPa 0,0 l/m 16,6 km/h (3 Bft) S-SO22.5 160 0 min 0 lux 0,00 min 0,2 C -7,5 C
22.02.2010 07:31 0,2 C 99 % 991 hPa 0,0 l/m 15,6 km/h (3 Bft) S-SO22.5 160 0 min 323 lux 0,00 min 0,1 C -7,1 C
22.02.2010 07:46 0,3 C 99 % 991 hPa 0,0 l/m 18,6 km/h (3 Bft) S-SO22.5 165 0 min 485 lux 0,00 min 0,2 C -8,6 C
22.02.2010 08:01 0,3 C 99 % 991 hPa 0,0 l/m 14,9 km/h (3 Bft) S22.5 170 0 min 1,57 klux 0,00 min 0,2 C -6,6 C
22.02.2010 08:15 0,4 C 99 % 991 hPa 0,0 l/m 9,8 km/h (2 Bft) S22.5 170 0 min 3,31 klux 0,00 min 0,3 C -2,8 C
22.02.2010 08:30 0,5 C 99 % 990 hPa 0,0 l/m 13,0 km/h (3 Bft) S-SO22.5 160 0 min 3,66 klux 0,00 min 0,4 C -5,1 C
22.02.2010 08:45 0,5 C 99 % 990 hPa 0,0 l/m 12,5 km/h (3 Bft) S-SO22.5 160 0 min 3,55 klux 0,00 min 0,4 C -4,8 C
22.02.2010 09:01 0,7 C 99 % 991 hPa 0,0 l/m 10,0 km/h (2 Bft) S22.5 180 0 min 5,59 klux 0,00 min 0,6 C -2,7 C
22.02.2010 09:16 1,1 C 99 % 990 hPa 0,0 l/m 15,3 km/h (3 Bft) S22.5 170 0 min 13,0 klux 0,00 min 1,0 C -5,8 C
22.02.2010 09:30 1,5 C 99 % 990 hPa 0,0 l/m 15,0 km/h (3 Bft) S45 190 0 min 16,9 klux 0,00 min 1,4 C -5,2 C
22.02.2010 09:45 1,5 C 99 % 990 hPa 0,0 l/m 17,9 km/h (3 Bft) S22.5 175 0 min 14,2 klux 0,00 min 1,4 C -6,7 C
22.02.2010 10:00 1,7 C 99 % 990 hPa 0,0 l/m 20,4 km/h (4 Bft) S22.5 170 0 min 14,8 klux 0,00 min 1,6 C -7,6 C
22.02.2010 10:15 1,9 C 99 % 990 hPa 0,0 l/m 17,0 km/h (3 Bft) S45 180 0 min 20,7 klux 0,00 min 1,8 C -5,8 C
22.02.2010 10:30 2,1 C 99 % 990 hPa 0,0 l/m 23,5 km/h (4 Bft) S45 190 0 min 21,7 klux 0,00 min 2,0 C -8,3 C
22.02.2010 10:46 2,2 C 99 % 990 hPa 0,0 l/m 19,1 km/h (3 Bft) S-SW45 200 0 min 11,1 klux 0,00 min 2,1 C -6,4 C
22.02.2010 11:01 2,3 C 99 % 990 hPa 0,0 l/m 21,1 km/h (4 Bft) S-SW45 195 0 min 14,0 klux 0,00 min 2,2 C -7,1 C
22.02.2010 11:15 2,3 C 99 % 990 hPa 0,0 l/m 28,8 km/h (4 Bft) S-SW45 205 0 min 12,6 klux 0,00 min 2,2 C -9,8 C
22.02.2010 11:30 2,7 C 98 % 990 hPa 0,0 l/m 24,6 km/h (4 Bft) S22.5 175 0 min 26,5 klux 0,00 min 2,4 C -7,9 C
22.02.2010 11:45 3,3 C 99 % 990 hPa 0,0 l/m 23,0 km/h (4 Bft) S-SW45 195 15 min 32,4 klux 0,00 min 3,2 C -6,5 C
22.02.2010 12:00 3,5 C 98 % 990 hPa 0,0 l/m 24,5 km/h (4 Bft) S45 185 15 min 26,9 klux 0,00 min 3,2 C -6,8 C
22.02.2010 12:15 3,8 C 98 % 990 hPa 0,0 l/m 24,5 km/h (4 Bft) S-SW45 205 15 min 29,0 klux 0,00 min 3,5 C -6,4 C
22.02.2010 12:31 4,1 C 96 % 989 hPa 0,0 l/m 26,1 km/h (4 Bft) S-SW67.5 210 16 min 27,4 klux 0,00 min 3,5 C -6,5 C
22.02.2010 12:46 4,2 C 96 % 989 hPa 0,0 l/m 31,1 km/h (5 Bft) S-SW45 205 0 min 23,2 klux 0,00 min 3,6 C -7,8 C
22.02.2010 13:00 4,5 C 95 % 989 hPa 0,0 l/m 36,9 km/h (5 Bft) S-SW45 195 14 min 27,7 klux 0,00 min 3,8 C -8,7 C
22.02.2010 13:15 4,5 C 95 % 989 hPa 0,0 l/m 32,0 km/h (5 Bft) S-SW45 200 15 min 29,0 klux 0,00 min 3,8 C -7,6 C
22.02.2010 13:30 4,9 C 93 % 989 hPa 0,0 l/m 32,6 km/h (5 Bft) SW45 215 15 min 43,3 klux 0,00 min 3,9 C -7,2 C
22.02.2010 13:45 5,6 C 93 % 989 hPa 0,0 l/m 27,1 km/h (4 Bft) S-SW67.5 200 15 min 42,9 klux 0,00 min 4,6 C -4,8 C
22.02.2010 14:00 6,1 C 92 % 988 hPa 0,0 l/m 25,3 km/h (4 Bft) S-SW45 195 15 min 40,5 klux 0,00 min 4,9 C -3,5 C
22.02.2010 14:16 6,8 C 90 % 988 hPa 0,0 l/m 21,7 km/h (4 Bft) SW45 220 16 min 83,6 klux 0,00 min 5,3 C -1,5 C
22.02.2010 14:31 7,4 C 88 % 988 hPa 0,0 l/m 29,6 km/h (5 Bft) S45 185 15 min 56,9 klux 0,00 min 5,5 C -2,9 C
22.02.2010 14:45 6,6 C 87 % 988 hPa 0,0 l/m 26,6 km/h (4 Bft) S-SW22.5 195 14 min 62,1 klux 0,00 min 4,6 C -3,2 C
22.02.2010 15:00 6,2 C 90 % 987 hPa 0,0 l/m 33,8 km/h (5 Bft) S45 190 15 min 51,6 klux 0,00 min 4,7 C -5,6 C
22.02.2010 15:15 6,1 C 90 % 987 hPa 0,0 l/m 30,1 km/h (5 Bft) S22.5 190 15 min 50,1 klux 0,00 min 4,6 C -4,9 C
22.02.2010 15:30 6,0 C 90 % 987 hPa 0,0 l/m 26,2 km/h (4 Bft) S22.5 175 15 min 48,3 klux 0,00 min 4,5 C -3,9 C
22.02.2010 15:46 6,0 C 91 % 987 hPa 0,0 l/m 33,1 km/h (5 Bft) S22.5 185 16 min 48,3 klux 0,00 min 4,6 C -5,7 C
22.02.2010 16:01 6,0 C 91 % 987 hPa 0,0 l/m 23,1 km/h (4 Bft) S45 190 15 min 31,7 klux 0,00 min 4,6 C -3,0 C
22.02.2010 16:15 6,1 C 91 % 987 hPa 0,0 l/m 32,1 km/h (5 Bft) S-SW45 210 0 min 18,1 klux 0,00 min 4,7 C -5,3 C
22.02.2010 16:30 6,0 C 90 % 987 hPa 0,0 l/m 28,4 km/h (4 Bft) S-SW45 205 0 min 12,6 klux 0,00 min 4,5 C -4,6 C
22.02.2010 16:45 6,0 C 90 % 987 hPa 0,0 l/m 23,8 km/h (4 Bft) SW45 220 0 min 7,97 klux 0,00 min 4,5 C -3,2 C
22.02.2010 17:00 5,8 C 90 % 987 hPa 0,0 l/m 21,3 km/h (4 Bft) S-SW22.5 205 0 min 7,09 klux 0,00 min 4,3 C -2,6 C
22.02.2010 17:15 5,6 C 91 % 987 hPa 0,0 l/m 15,7 km/h (3 Bft) S-SW45 195 0 min 4,70 klux 0,00 min 4,2 C -0,5 C
22.02.2010 17:31 5,3 C 92 % 987 hPa 0,0 l/m 18,0 km/h (3 Bft) S22.5 190 0 min 3,67 klux 0,00 min 4,1 C -2,0 C
22.02.2010 17:46 5,2 C 93 % 987 hPa 0,0 l/m 21,3 km/h (4 Bft) SW45 215 0 min 2,09 klux 0,00 min 4,2 C -3,4 C
22.02.2010 18:00 5,2 C 93 % 987 hPa 0,0 l/m 21,3 km/h (4 Bft) SW22.5 225 0 min 603 lux 0,00 min 4,2 C -3,4 C
22.02.2010 18:15 5,3 C 93 % 987 hPa 0,0 l/m 26,1 km/h (4 Bft) S-SW45 200 0 min 171 lux 0,00 min 4,3 C -4,9 C
22.02.2010 18:30 5,4 C 92 % 986 hPa 0,0 l/m 29,3 km/h (5 Bft) S-SW22.5 195 0 min 41 lux 0,00 min 4,2 C -5,6 C
22.02.2010 18:45 5,2 C 93 % 987 hPa 0,0 l/m 21,8 km/h (4 Bft) SW45 215 0 min 4 lux 0,00 min 4,2 C -3,6 C
22.02.2010 19:00 4,8 C 93 % 987 hPa 0,3 l/m 22,7 km/h (4 Bft) W-SW22.5 250 0 min 0 lux 15,00 min 3,8 C -4,4 C
22.02.2010 19:16 4,3 C 94 % 987 hPa 0,9 l/m 23,2 km/h (4 Bft) W22.5 260 0 min 0 lux 16,00 min 3,4 C -5,3 C
22.02.2010 19:31 4,0 C 96 % 987 hPa 0,9 l/m 21,4 km/h (4 Bft) W-SW22.5 250 0 min 0 lux 15,00 min 3,4 C -5,0 C
22.02.2010 19:45 3,9 C 96 % 987 hPa 0,3 l/m 21,6 km/h (4 Bft) SW22.5 225 0 min 0 lux 14,00 min 3,3 C -5,2 C
22.02.2010 20:00 3,7 C 96 % 987 hPa 0,9 l/m 19,3 km/h (3 Bft) W22.5 260 0 min 0 lux 15,00 min 3,1 C -4,6 C
22.02.2010 20:15 3,7 C 98 % 987 hPa 0,6 l/m 23,5 km/h (4 Bft) SW45 215 0 min 0 lux 15,00 min 3,4 C -6,2 C
22.02.2010 20:30 3,8 C 98 % 987 hPa 0,3 l/m 22,6 km/h (4 Bft) SW45 215 0 min 0 lux 15,00 min 3,5 C -5,7 C
22.02.2010 20:46 4,0 C 98 % 987 hPa 0,0 l/m 22,6 km/h (4 Bft) SW45 215 0 min 0 lux 0,00 min 3,7 C -5,5 C
22.02.2010 21:01 4,5 C 99 % 987 hPa 0,0 l/m 22,6 km/h (4 Bft) SW45 215 0 min 0 lux 0,00 min 4,4 C -4,8 C
22.02.2010 21:15 4,7 C 98 % 987 hPa 0,0 l/m 35,6 km/h (5 Bft) SW45 215 0 min 0 lux 0,00 min 4,4 C -8,1 C
22.02.2010 21:30 4,8 C 97 % 987 hPa 0,3 l/m 33,1 km/h (5 Bft) S-SW45 210 0 min 0 lux 15,00 min 4,4 C -7,4 C
22.02.2010 21:45 4,8 C 97 % 987 hPa 0,3 l/m 34,2 km/h (5 Bft) SW45 215 0 min 0 lux 15,00 min 4,4 C -7,7 C
22.02.2010 22:00 4,8 C 97 % 987 hPa 0,0 l/m 31,5 km/h (5 Bft) SW45 225 0 min 0 lux 0,00 min 4,4 C -7,0 C
22.02.2010 22:15 4,8 C 97 % 987 hPa 0,0 l/m 28,1 km/h (4 Bft) SW22.5 220 0 min 0 lux 0,00 min 4,4 C -6,1 C
22.02.2010 22:31 4,8 C 97 % 987 hPa 0,0 l/m 31,8 km/h (5 Bft) S-SW45 205 0 min 0 lux 0,00 min 4,4 C -7,1 C
22.02.2010 22:46 4,9 C 98 % 987 hPa 0,0 l/m 32,2 km/h (5 Bft) SW45 225 0 min 0 lux 0,00 min 4,6 C -7,1 C
22.02.2010 23:00 4,9 C 97 % 987 hPa 0,0 l/m 34,9 km/h (5 Bft) SW45 220 0 min 0 lux 0,00 min 4,5 C -7,7 C
22.02.2010 23:15 4,6 C 97 % 988 hPa 0,3 l/m 33,4 km/h (5 Bft) W-SW45 245 0 min 0 lux 15,00 min 4,2 C -7,8 C
22.02.2010 23:30 4,5 C 97 % 988 hPa 0,0 l/m 34,0 km/h (5 Bft) SW45 225 0 min 0 lux 0,00 min 4,1 C -8,1 C
22.02.2010 23:45 4,3 C 97 % 988 hPa 0,0 l/m 27,9 km/h (4 Bft) W-SW22.5 250 0 min 0 lux 0,00 min 3,9 C -6,8 C
_ Min-Zeit 02:45 14:45 18:30 - 02:45 - - - - - 02:45 01:15
Minimum _ -0,8 C 87 % 986 hPa - 9,2 km/h (2 Bft) - - - - - -1,2 C -11,3 C
_ Max-Zeit 14:31 07:16 00:00 19:16 13:00 - - 12:31 14:16 19:16 14:31 17:15
Maximum _ 7,4 C 99 % 994 hPa 0,9 l/m 36,9 km/h
S-SW (5 Bft)
- - 16 min 83,6 klux 16,00 min 5,5 C -0,5 C
Durchschnitt _ 2,8 C 96 % 990 hPa #5,1 l/m 21,9 km/h (4 Bft) S - #4:16 h 10,4 klux #2:30 h 2,2 C -6,2 C